Tracking 19562 objects as of 22-Mar-2019
HD Live streaming from Space Station
objects crossing your sky now

PAKSAT 1 (ANATOLIA 1)

Track PAKSAT 1 (ANATOLIA 1) now!
PAKSAT 1 (ANATOLIA 1) is classified as:


NORAD ID: 23779
Int'l Code: 1996-006A
Perigee: 35,975.5 km
Apogee: 35,997.0 km
Inclination: 5.5 °
Period: 1,445.9 minutes
Semi major axis: 42357 km
RCS: 35.9071 m2 (large)
Launch date: February 1, 1996
Source: Pakistan (PAKI)
Launch site: AIR FORCE EASTERN TEST RANGE (AFETR)

30 C-band, 6 Ku-band; voice and TV communications to the Pakistan and Middle East; satellite not operational at full capacity.
aabbcc
Your satellite tracking list
Your tracking list is empty




NASA's NSSDC Master Catalog

Two Line Element Set (TLE):
1 23779U 96006A   19080.90327167 -.00000168 +00000-0 +00000-0 0  9998
2 23779 005.4855 063.8950 0002538 205.8901 331.2083 00.99589095084513
Source of the keplerian elements: AFSPC